| time (UTC) | temp C | wind direction | speed KPH | gust KPH | rain 1hr cm | rain 24hr cm | rain mn cm | humidity % | barometer mb |
| 20260507060748 | 15 | 167 | 4.8 | 4.8 | 0.00 | 0.00 | 0.00 | 72 | 1020.7 |
| 20260507060247 | 15 | 222 | 3.2 | 3.2 | 0.00 | 0.00 | 0.00 | 70 | 1020.7 |
| 20260507055748 | 15 | 146 | 4.8 | 4.8 | 0.00 | 0.00 | 0.00 | 70 | 1020.7 |
| 20260507055247 | 14 | 144 | 4.8 | 4.8 | 0.00 | 0.00 | 0.00 | 70 | 1020.3 |
| 20260507054747 | 14 | 186 | 4.8 | 4.8 | 0.00 | 0.00 | 0.00 | 70 | 1020.3 |
| 20260507054249 | 14 | 277 | 3.2 | 3.2 | 0.00 | 0.00 | 0.00 | 71 | 1020.7 |
| 20260507053747 | 14 | 155 | 4.8 | 4.8 | 0.00 | 0.00 | 0.00 | 73 | 1020.3 |
| 20260507053248 | 14 | 165 | 3.2 | 3.2 | 0.00 | 0.00 | 0.00 | 74 | 1020.7 |
| 20260507052747 | 13 | 138 | 3.2 | 3.2 | 0.00 | 0.00 | 0.00 | 75 | 1020.3 |
| 20260507052247 | 14 | 210 | 9.7 | 11.3 | 0.00 | 0.00 | 0.00 | 74 | 1020.3 |
| 20260507051747 | 14 | 282 | 3.2 | 3.2 | 0.00 | 0.00 | 0.00 | 72 | 1020.3 |
| 20260507051247 | 14 | 136 | 0.0 | 0.0 | 0.00 | 0.00 | 0.00 | 71 | 1020.3 |
| 20260507050747 | 15 | 182 | 0.0 | 0.0 | 0.00 | 0.00 | 0.00 | 70 | 1020.3 |
| 20260507050248 | 15 | 162 | 0.0 | 0.0 | 0.00 | 0.00 | 0.00 | 69 | 1020.0 |
| 20260507045748 | 14 | 126 | 0.0 | 0.0 | 0.00 | 0.00 | 0.00 | 71 | 1020.0 |
| 20260507045247 | 14 | 162 | 1.6 | 1.6 | 0.00 | 0.00 | 0.00 | 70 | 1020.0 |
| 20260507044748 | 13 | 91 | 0.0 | 0.0 | 0.00 | 0.00 | 0.00 | 70 | 1020.3 |
| 20260507044248 | 13 | 171 | 0.0 | 0.0 | 0.00 | 0.00 | 0.00 | 74 | 1020.0 |
| 20260507043749 | 13 | 102 | 0.0 | 0.0 | 0.00 | 0.00 | 0.00 | 74 | 1020.0 |
| 20260507043248 | 12 | 142 | 1.6 | 1.6 | 0.00 | 0.00 | 0.00 | 74 | 1020.0 |
| 20260507042748 | 12 | 138 | 0.0 | 0.0 | 0.00 | 0.00 | 0.00 | 76 | 1020.0 |
| 20260507042247 | 12 | 192 | 0.0 | 0.0 | 0.00 | 0.00 | 0.00 | 77 | 1020.0 |
| 20260507041751 | 12 | 144 | 0.0 | 0.0 | 0.00 | 0.00 | 0.00 | 75 | 1020.0 |
| 20260507041249 | 12 | 126 | 0.0 | 0.0 | 0.00 | 0.00 | 0.00 | 78 | 1020.0 |
| 20260507040747 | 12 | 78 | 0.0 | 0.0 | 0.00 | 0.00 | 0.00 | 79 | 1020.0 |
| 20260507040249 | 12 | 159 | 0.0 | 0.0 | 0.00 | 0.00 | 0.00 | 80 | 1020.0 |
| 20260507035748 | 11 | 108 | 0.0 | 0.0 | 0.00 | 0.00 | 0.00 | 81 | 1019.6 |
| 20260507035248 | 11 | 150 | 1.6 | 1.6 | 0.00 | 0.00 | 0.00 | 82 | 1020.0 |
| 20260507034748 | 11 | 90 | 0.0 | 0.0 | 0.00 | 0.00 | 0.00 | 81 | 1019.6 |
| 20260507034247 | 11 | 36 | 0.0 | 0.0 | 0.00 | 0.00 | 0.00 | 81 | 1019.6 |
| 20260507033747 | 11 | 6 | 0.0 | 0.0 | 0.00 | 0.00 | 0.00 | 82 | 1019.6 |
| 20260507033247 | 10 | 197 | 0.0 | 0.0 | 0.00 | 0.00 | 0.00 | 85 | 1019.6 |
| 20260507032749 | 10 | 203 | 0.0 | 0.0 | 0.00 | 0.00 | 0.00 | 86 | 1019.3 |
| 20260507032248 | 10 | 270 | 0.0 | 0.0 | 0.00 | 0.00 | 0.00 | 86 | 1019.3 |
| 20260507031747 | 10 | 246 | 0.0 | 0.0 | 0.00 | 0.00 | 0.00 | 85 | 1019.6 |
| 20260507031249 | 10 | 272 | 0.0 | 0.0 | 0.00 | 0.00 | 0.00 | 85 | 1019.3 |
| 20260507030748 | 10 | 213 | 0.0 | 0.0 | 0.00 | 0.00 | 0.00 | 85 | 1019.3 |
| 20260507030250 | 10 | 204 | 0.0 | 0.0 | 0.00 | 0.00 | 0.00 | 86 | 1019.3 |
| 20260507025748 | 10 | 234 | 1.6 | 1.6 | 0.00 | 0.00 | 0.00 | 86 | 1019.3 |
| 20260507025247 | 10 | 225 | 1.6 | 1.6 | 0.00 | 0.00 | 0.00 | 86 | 1019.3 |
| 20260507024748 | 10 | 171 | 1.6 | 1.6 | 0.00 | 0.00 | 0.00 | 86 | 1019.3 |
| 20260507024248 | 10 | 96 | 0.0 | 0.0 | 0.00 | 0.00 | 0.00 | 86 | 1019.0 |
| 20260507023748 | 10 | 186 | 0.0 | 0.0 | 0.00 | 0.00 | 0.00 | 86 | 1019.0 |
| 20260507023248 | 10 | 96 | 0.0 | 0.0 | 0.00 | 0.00 | 0.00 | 86 | 1019.0 |
| 20260507022747 | 10 | 240 | 0.0 | 0.0 | 0.00 | 0.00 | 0.00 | 86 | 1019.3 |
| 20260507022248 | 10 | 216 | 0.0 | 0.0 | 0.00 | 0.00 | 0.00 | 85 | 1019.0 |
| 20260507021748 | 10 | 156 | 0.0 | 0.0 | 0.00 | 0.00 | 0.00 | 85 | 1019.0 |
| 20260507021252 | 10 | 259 | 0.0 | 0.0 | 0.00 | 0.00 | 0.00 | 85 | 1019.0 |
| 20260507020748 | 10 | 36 | 0.0 | 0.0 | 0.00 | 0.00 | 0.00 | 83 | 1019.0 |
| 20260507020247 | 10 | 90 | 0.0 | 0.0 | 0.00 | 0.00 | 0.00 | 84 | 1019.0 |
| 20260507015748 | 10 | 60 | 1.6 | 1.6 | 0.00 | 0.00 | 0.00 | 84 | 1019.0 |
| 20260507015248 | 10 | 72 | 0.0 | 0.0 | 0.00 | 0.00 | 0.00 | 84 | 1018.6 |
| 20260507014747 | 10 | 187 | 0.0 | 0.0 | 0.00 | 0.00 | 0.00 | 84 | 1019.0 |
| 20260507014248 | 11 | 216 | 0.0 | 0.0 | 0.00 | 0.00 | 0.00 | 84 | 1019.0 |
| 20260507013748 | 11 | 225 | 0.0 | 0.0 | 0.00 | 0.00 | 0.00 | 82 | 1018.6 |
| 20260507013247 | 11 | 203 | 4.8 | 4.8 | 0.00 | 0.00 | 0.00 | 82 | 1019.0 |
| 20260507012748 | 11 | 204 | 8.0 | 8.0 | 0.00 | 0.00 | 0.00 | 81 | 1018.6 |
| 20260507012247 | 11 | 248 | 1.6 | 1.6 | 0.00 | 0.00 | 0.00 | 79 | 1019.0 |
| 20260507011748 | 11 | 234 | 3.2 | 3.2 | 0.00 | 0.00 | 0.00 | 80 | 1018.6 |
| 20260507011248 | 11 | 174 | 0.0 | 0.0 | 0.00 | 0.00 | 0.00 | 81 | 1018.6 |
| 20260507010747 | 11 | 288 | 0.0 | 0.0 | 0.00 | 0.00 | 0.00 | 82 | 1018.6 |
| 20260507010247 | 11 | 177 | 0.0 | 0.0 | 0.00 | 0.00 | 0.00 | 82 | 1018.3 |
| 20260507005748 | 11 | 355 | 0.0 | 0.0 | 0.00 | 0.00 | 0.00 | 81 | 1018.6 |
| 20260507005247 | 11 | 180 | 0.0 | 0.0 | 0.00 | 0.00 | 0.00 | 81 | 1018.6 |
| 20260507004747 | 11 | 192 | 0.0 | 0.0 | 0.00 | 0.00 | 0.00 | 80 | 1018.6 |
| 20260507004247 | 11 | 192 | 0.0 | 0.0 | 0.00 | 0.00 | 0.00 | 80 | 1018.6 |
| 20260507003748 | 11 | 6 | 0.0 | 0.0 | 0.00 | 0.00 | 0.00 | 80 | 1018.6 |
| 20260507003247 | 12 | 159 | 1.6 | 1.6 | 0.00 | 0.00 | 0.00 | 78 | 1018.3 |
| 20260507002747 | 12 | 198 | 1.6 | 1.6 | 0.00 | 0.00 | 0.00 | 77 | 1018.3 |
| 20260507002248 | 12 | 240 | 0.0 | 0.0 | 0.00 | 0.00 | 0.00 | 77 | 1018.3 |
| 20260507001747 | 12 | 204 | 0.0 | 0.0 | 0.00 | 0.00 | 0.00 | 76 | 1018.3 |
| 20260507001248 | 12 | 222 | 1.6 | 1.6 | 0.00 | 0.00 | 0.00 | 76 | 1018.6 |
| 20260507000747 | 12 | 130 | 0.0 | 0.0 | 0.00 | 0.00 | 0.00 | 76 | 1018.3 |
| 20260507000247 | 12 | 188 | 3.2 | 3.2 | 0.00 | 0.00 | 0.00 | 75 | 1018.3 |
| 20260506235747 | 12 | 220 | 3.2 | 3.2 | 0.00 | 0.00 | 0.00 | 74 | 1018.3 |
| 20260506235247 | 12 | 150 | 3.2 | 3.2 | 0.00 | 0.00 | 0.00 | 74 | 1018.6 |
| 20260506234748 | 13 | 192 | 4.8 | 4.8 | 0.00 | 0.00 | 0.00 | 73 | 1018.3 |
| 20260506234248 | 13 | 120 | 0.0 | 0.0 | 0.00 | 0.00 | 0.00 | 73 | 1018.6 |
| 20260506233748 | 13 | 176 | 0.0 | 0.0 | 0.00 | 0.00 | 0.00 | 72 | 1018.3 |
| 20260506233247 | 13 | 252 | 0.0 | 0.0 | 0.00 | 0.00 | 0.00 | 70 | 1018.3 |
| 20260506232748 | 13 | 234 | 0.0 | 0.0 | 0.00 | 0.00 | 0.00 | 71 | 1018.3 |
| 20260506232247 | 13 | 342 | 4.8 | 4.8 | 0.00 | 0.00 | 0.00 | 69 | 1018.6 |
| 20260506231748 | 13 | 276 | 8.0 | 9.7 | 0.00 | 0.00 | 0.00 | 70 | 1018.3 |
| 20260506231248 | 13 | 336 | 4.8 | 4.8 | 0.00 | 0.00 | 0.00 | 68 | 1018.3 |
| 20260506230748 | 14 | 348 | 6.4 | 6.4 | 0.00 | 0.00 | 0.00 | 69 | 1018.3 |
| 20260506230248 | 14 | 287 | 6.4 | 6.4 | 0.00 | 0.00 | 0.00 | 68 | 1018.3 |
| 20260506225747 | 14 | 294 | 1.6 | 1.6 | 0.00 | 0.00 | 0.00 | 68 | 1018.3 |
| 20260506225249 | 14 | 6 | 8.0 | 8.0 | 0.00 | 0.00 | 0.00 | 68 | 1018.3 |
| 20260506224748 | 14 | 30 | 1.6 | 1.6 | 0.00 | 0.00 | 0.00 | 67 | 1018.3 |
| 20260506224248 | 14 | 34 | 1.6 | 1.6 | 0.00 | 0.00 | 0.00 | 67 | 1018.6 |
| 20260506223747 | 14 | 1 | 4.8 | 4.8 | 0.00 | 0.00 | 0.00 | 68 | 1018.3 |
| 20260506223248 | 14 | 48 | 1.6 | 1.6 | 0.00 | 0.00 | 0.00 | 67 | 1018.3 |
| 20260506222747 | 14 | 6 | 1.6 | 1.6 | 0.00 | 0.00 | 0.00 | 68 | 1018.6 |
| 20260506222248 | 14 | 354 | 4.8 | 4.8 | 0.00 | 0.00 | 0.00 | 69 | 1018.3 |
| 20260506221748 | 14 | 54 | 1.6 | 1.6 | 0.00 | 0.00 | 0.00 | 67 | 1018.3 |
| 20260506221247 | 14 | 300 | 1.6 | 1.6 | 0.00 | 0.00 | 0.00 | 67 | 1018.3 |
| 20260506220753 | 14 | 6 | 4.8 | 4.8 | 0.00 | 0.00 | 0.00 | 66 | 1018.3 |
| 20260506220248 | 14 | 30 | 4.8 | 4.8 | 0.00 | 0.00 | 0.00 | 65 | 1018.6 |
| 20260506215747 | 14 | 168 | 3.2 | 3.2 | 0.00 | 0.00 | 0.00 | 68 | 1018.6 |
| 20260506215248 | 14 | 1 | 4.8 | 6.4 | 0.00 | 0.00 | 0.00 | 69 | 1018.6 |
| 20260506214748 | 14 | 324 | 4.8 | 4.8 | 0.00 | 0.00 | 0.00 | 69 | 1018.6 |
| 20260506214251 | 14 | 48 | 6.4 | 8.0 | 0.00 | 0.00 | 0.00 | 68 | 1018.6 |
| 20260506213748 | 14 | 30 | 4.8 | 4.8 | 0.00 | 0.00 | 0.00 | 67 | 1018.6 |
| 20260506213247 | 15 | 48 | 3.2 | 3.2 | 0.00 | 0.00 | 0.00 | 66 | 1018.6 |
| 20260506212748 | 15 | 316 | 1.6 | 1.6 | 0.00 | 0.00 | 0.00 | 65 | 1018.6 |
| 20260506212248 | 15 | 348 | 6.4 | 8.0 | 0.00 | 0.00 | 0.00 | 64 | 1018.6 |
| 20260506211748 | 15 | 48 | 3.2 | 3.2 | 0.00 | 0.00 | 0.00 | 61 | 1018.6 |
| 20260506211247 | 15 | 342 | 4.8 | 4.8 | 0.00 | 0.00 | 0.00 | 64 | 1018.6 |
| 20260506210748 | 15 | 324 | 3.2 | 3.2 | 0.00 | 0.00 | 0.00 | 66 | 1019.0 |
| 20260506210248 | 14 | 1 | 6.4 | 6.4 | 0.00 | 0.00 | 0.00 | 64 | 1018.6 |
| 20260506205747 | 14 | 6 | 4.8 | 6.4 | 0.00 | 0.00 | 0.00 | 68 | 1018.6 |
| 20260506205247 | 14 | 187 | 6.4 | 8.0 | 0.00 | 0.00 | 0.00 | 68 | 1018.6 |
| 20260506204747 | 14 | 6 | 3.2 | 3.2 | 0.00 | 0.00 | 0.00 | 68 | 1018.3 |
| 20260506204249 | 14 | 84 | 3.2 | 3.2 | 0.00 | 0.00 | 0.00 | 68 | 1018.6 |
| 20260506203748 | 15 | 342 | 3.2 | 3.2 | 0.00 | 0.00 | 0.00 | 65 | 1018.6 |
| 20260506203247 | 15 | 350 | 4.8 | 4.8 | 0.00 | 0.00 | 0.00 | 65 | 1018.3 |
| 20260506202747 | 15 | 348 | 4.8 | 4.8 | 0.00 | 0.00 | 0.00 | 63 | 1018.3 |
| 20260506202247 | 15 | 36 | 6.4 | 8.0 | 0.00 | 0.00 | 0.00 | 63 | 1018.3 |
| 20260506201748 | 15 | 311 | 3.2 | 3.2 | 0.00 | 0.00 | 0.00 | 65 | 1018.6 |
| 20260506201248 | 15 | 342 | 8.0 | 8.0 | 0.00 | 0.00 | 0.00 | 65 | 1018.3 |
| 20260506200747 | 15 | 300 | 4.8 | 4.8 | 0.00 | 0.00 | 0.00 | 64 | 1018.3 |
| 20260506200248 | 16 | 348 | 0.0 | 0.0 | 0.00 | 0.00 | 0.00 | 59 | 1018.3 |
| 20260506195747 | 16 | 294 | 3.2 | 3.2 | 0.00 | 0.00 | 0.00 | 57 | 1018.6 |
| 20260506195247 | 16 | 336 | 0.0 | 0.0 | 0.00 | 0.00 | 0.00 | 60 | 1018.3 |
| 20260506194748 | 16 | 260 | 0.0 | 0.0 | 0.00 | 0.00 | 0.00 | 59 | 1018.3 |
| 20260506194248 | 16 | 318 | 8.0 | 9.7 | 0.00 | 0.00 | 0.00 | 58 | 1018.3 |
| 20260506193749 | 16 | 339 | 14.5 | 14.5 | 0.00 | 0.00 | 0.00 | 58 | 1018.3 |
| 20260506193249 | 16 | 183 | 9.7 | 11.3 | 0.00 | 0.00 | 0.00 | 60 | 1018.3 |
| 20260506192748 | 16 | 310 | 8.0 | 8.0 | 0.00 | 0.00 | 0.00 | 59 | 1018.3 |
| 20260506192247 | 16 | 0 | 8.0 | 11.3 | 0.00 | 0.00 | 0.00 | 61 | 1018.3 |
| 20260506191748 | 16 | 344 | 11.3 | 12.9 | 0.00 | 0.00 | 0.00 | 61 | 1018.3 |
| 20260506191247 | 16 | 351 | 8.0 | 8.0 | 0.00 | 0.00 | 0.00 | 58 | 1018.3 |
| 20260506190747 | 16 | 342 | 8.0 | 8.0 | 0.00 | 0.00 | 0.00 | 58 | 1018.3 |
| 20260506190247 | 16 | 354 | 9.7 | 9.7 | 0.00 | 0.00 | 0.00 | 57 | 1018.3 |
| 20260506185747 | 16 | 348 | 6.4 | 6.4 | 0.00 | 0.00 | 0.00 | 56 | 1018.3 |
| 20260506185248 | 16 | 336 | 8.0 | 8.0 | 0.00 | 0.00 | 0.00 | 60 | 1018.3 |
| 20260506184748 | 16 | 288 | 1.6 | 1.6 | 0.00 | 0.00 | 0.00 | 60 | 1018.3 |
| 20260506184248 | 16 | 294 | 3.2 | 3.2 | 0.00 | 0.00 | 0.00 | 57 | 1018.3 |
| 20260506183747 | 16 | 276 | 8.0 | 8.0 | 0.00 | 0.00 | 0.00 | 56 | 1018.3 |
| 20260506183248 | 16 | 208 | 3.2 | 3.2 | 0.00 | 0.00 | 0.00 | 63 | 1018.3 |
| 20260506182747 | 15 | 120 | 1.6 | 1.6 | 0.00 | 0.00 | 0.00 | 61 | 1018.3 |
| 20260506182247 | 15 | 60 | 0.0 | 0.0 | 0.00 | 0.00 | 0.00 | 63 | 1017.9 |
| 20260506181747 | 15 | 1 | 4.8 | 4.8 | 0.00 | 0.00 | 0.00 | 65 | 1018.3 |
| 20260506181249 | 16 | 113 | 3.2 | 3.2 | 0.00 | 0.00 | 0.00 | 64 | 1018.3 |
| 20260506180748 | 16 | 42 | 3.2 | 3.2 | 0.00 | 0.00 | 0.00 | 62 | 1017.9 |
| 20260506180249 | 16 | 0 | 0.0 | 0.0 | 0.00 | 0.00 | 0.00 | 61 | 1017.9 |
| 20260506175747 | 16 | 276 | 3.2 | 3.2 | 0.00 | 0.00 | 0.00 | 62 | 1017.9 |
| 20260506175247 | 16 | 350 | 1.6 | 1.6 | 0.00 | 0.00 | 0.00 | 62 | 1017.9 |
| 20260506174749 | 16 | 66 | 3.2 | 3.2 | 0.00 | 0.00 | 0.00 | 62 | 1017.6 |
| 20260506174248 | 16 | 36 | 6.4 | 8.0 | 0.00 | 0.00 | 0.00 | 60 | 1017.6 |
| 20260506173747 | 16 | 72 | 4.8 | 4.8 | 0.00 | 0.00 | 0.00 | 63 | 1017.6 |
| 20260506173248 | 16 | 84 | 3.2 | 3.2 | 0.00 | 0.00 | 0.00 | 61 | 1017.6 |
| 20260506172747 | 17 | 276 | 3.2 | 3.2 | 0.00 | 0.00 | 0.00 | 59 | 1017.6 |
| 20260506172248 | 17 | 228 | 6.4 | 6.4 | 0.00 | 0.00 | 0.00 | 59 | 1017.3 |
| 20260506171747 | 17 | 206 | 6.4 | 8.0 | 0.00 | 0.00 | 0.00 | 59 | 1017.3 |
| 20260506171248 | 17 | 354 | 0.0 | 0.0 | 0.00 | 0.00 | 0.00 | 59 | 1016.9 |
| 20260506170747 | 17 | 294 | 14.5 | 14.5 | 0.00 | 0.00 | 0.00 | 58 | 1016.9 |
| 20260506170248 | 17 | 282 | 3.2 | 3.2 | 0.00 | 0.00 | 0.00 | 58 | 1016.9 |
| 20260506165748 | 17 | 242 | 9.7 | 11.3 | 0.00 | 0.00 | 0.00 | 59 | 1016.9 |
| 20260506165248 | 17 | 261 | 11.3 | 12.9 | 0.00 | 0.00 | 0.00 | 58 | 1017.3 |
| 20260506164748 | 17 | 312 | 6.4 | 8.0 | 0.00 | 0.00 | 0.00 | 58 | 1016.9 |
| 20260506164248 | 17 | 312 | 9.7 | 9.7 | 0.00 | 0.00 | 0.00 | 58 | 1016.9 |
| 20260506163747 | 17 | 282 | 12.9 | 14.5 | 0.00 | 0.00 | 0.00 | 58 | 1016.9 |
| 20260506163256 | 17 | 282 | 14.5 | 14.5 | 0.00 | 0.00 | 0.00 | 57 | 1016.9 |
| 20260506162749 | 17 | 312 | 11.3 | 12.9 | 0.00 | 0.00 | 0.00 | 57 | 1016.9 |
| 20260506162248 | 17 | 264 | 8.0 | 8.0 | 0.00 | 0.00 | 0.00 | 57 | 1016.9 |
| 20260506161748 | 17 | 282 | 4.8 | 4.8 | 0.00 | 0.00 | 0.00 | 56 | 1016.9 |
| 20260506161247 | 18 | 318 | 11.3 | 11.3 | 0.00 | 0.00 | 0.00 | 56 | 1016.9 |
| 20260506160750 | 18 | 288 | 4.8 | 4.8 | 0.00 | 0.00 | 0.00 | 56 | 1016.9 |
| 20260506160247 | 18 | 271 | 29.0 | 30.6 | 0.00 | 0.00 | 0.00 | 55 | 1016.9 |
| 20260506155748 | 18 | 260 | 19.3 | 22.5 | 0.00 | 0.00 | 0.00 | 54 | 1016.9 |
| 20260506155248 | 18 | 265 | 12.9 | 12.9 | 0.00 | 0.00 | 0.00 | 55 | 1016.6 |
| 20260506154747 | 18 | 277 | 11.3 | 11.3 | 0.00 | 0.00 | 0.00 | 54 | 1016.9 |
| 20260506154248 | 18 | 287 | 14.5 | 14.5 | 0.00 | 0.00 | 0.00 | 53 | 1016.6 |
| 20260506153748 | 18 | 248 | 17.7 | 17.7 | 0.00 | 0.00 | 0.00 | 53 | 1016.6 |
| 20260506153248 | 18 | 310 | 20.9 | 24.1 | 0.00 | 0.00 | 0.00 | 52 | 1016.3 |
| 20260506152751 | 19 | 270 | 12.9 | 12.9 | 0.00 | 0.00 | 0.00 | 53 | 1016.6 |
| 20260506152248 | 19 | 304 | 14.5 | 14.5 | 0.00 | 0.00 | 0.00 | 52 | 1016.6 |
| 20260506151748 | 19 | 332 | 11.3 | 12.9 | 0.00 | 0.00 | 0.00 | 51 | 1016.3 |
| 20260506151249 | 19 | 282 | 29.0 | 32.2 | 0.00 | 0.00 | 0.00 | 51 | 1016.3 |
| 20260506150748 | 19 | 264 | 19.3 | 20.9 | 0.00 | 0.00 | 0.00 | 51 | 1016.6 |
| 20260506150247 | 19 | 266 | 9.7 | 11.3 | 0.00 | 0.00 | 0.00 | 50 | 1016.6 |
| 20260506145748 | 19 | 303 | 17.7 | 22.5 | 0.00 | 0.00 | 0.00 | 50 | 1016.3 |
| 20260506145247 | 20 | 282 | 14.5 | 17.7 | 0.00 | 0.00 | 0.00 | 49 | 1016.6 |
| 20260506144747 | 20 | 252 | 19.3 | 20.9 | 0.00 | 0.00 | 0.00 | 50 | 1016.6 |
| 20260506144248 | 20 | 306 | 6.4 | 8.0 | 0.00 | 0.00 | 0.00 | 50 | 1016.3 |
| 20260506143747 | 20 | 356 | 20.9 | 24.1 | 0.00 | 0.00 | 0.00 | 49 | 1016.3 |
| 20260506143248 | 20 | 287 | 14.5 | 17.7 | 0.00 | 0.00 | 0.00 | 49 | 1016.6 |
| 20260506142749 | 20 | 246 | 14.5 | 16.1 | 0.00 | 0.00 | 0.00 | 49 | 1016.6 |
| 20260506142249 | 20 | 282 | 24.1 | 29.0 | 0.00 | 0.00 | 0.00 | 48 | 1016.6 |
| 20260506141749 | 20 | 258 | 14.5 | 17.7 | 0.00 | 0.00 | 0.00 | 48 | 1016.3 |
| 20260506141249 | 20 | 306 | 8.0 | 11.3 | 0.00 | 0.00 | 0.00 | 49 | 1016.6 |
| 20260506140748 | 20 | 264 | 30.6 | 32.2 | 0.00 | 0.00 | 0.00 | 48 | 1016.6 |
| 20260506140248 | 20 | 299 | 14.5 | 17.7 | 0.00 | 0.00 | 0.00 | 48 | 1016.3 |
| 20260506135749 | 20 | 246 | 24.1 | 25.7 | 0.00 | 0.00 | 0.00 | 47 | 1016.3 |
| 20260506135248 | 20 | 348 | 16.1 | 17.7 | 0.00 | 0.00 | 0.00 | 48 | 1016.3 |
| 20260506134748 | 20 | 270 | 8.0 | 8.0 | 0.00 | 0.00 | 0.00 | 48 | 1016.3 |
| 20260506134248 | 20 | 310 | 12.9 | 14.5 | 0.00 | 0.00 | 0.00 | 48 | 1016.3 |
| 20260506133749 | 20 | 223 | 12.9 | 12.9 | 0.00 | 0.00 | 0.00 | 48 | 1016.3 |
| 20260506133248 | 20 | 322 | 16.1 | 19.3 | 0.00 | 0.00 | 0.00 | 48 | 1016.6 |
| 20260506132748 | 20 | 226 | 17.7 | 24.1 | 0.00 | 0.00 | 0.00 | 48 | 1016.3 |
| 20260506132248 | 20 | 282 | 17.7 | 19.3 | 0.00 | 0.00 | 0.00 | 47 | 1016.6 |
| 20260506131748 | 20 | 287 | 12.9 | 12.9 | 0.00 | 0.00 | 0.00 | 48 | 1016.3 |
| 20260506131247 | 20 | 229 | 12.9 | 14.5 | 0.00 | 0.00 | 0.00 | 48 | 1016.3 |
| 20260506130747 | 20 | 205 | 12.9 | 14.5 | 0.00 | 0.00 | 0.00 | 48 | 1016.3 |
| 20260506130248 | 20 | 258 | 16.1 | 17.7 | 0.00 | 0.00 | 0.00 | 49 | 1016.3 |
| 20260506125748 | 20 | 227 | 9.7 | 11.3 | 0.00 | 0.00 | 0.00 | 48 | 1016.6 |
| 20260506125247 | 20 | 246 | 16.1 | 17.7 | 0.00 | 0.00 | 0.00 | 49 | 1016.3 |
| 20260506124748 | 20 | 210 | 12.9 | 12.9 | 0.00 | 0.00 | 0.00 | 50 | 1016.3 |
| 20260506124248 | 20 | 248 | 24.1 | 25.7 | 0.00 | 0.00 | 0.00 | 49 | 1016.6 |
| 20260506123748 | 20 | 322 | 16.1 | 17.7 | 0.00 | 0.00 | 0.00 | 50 | 1016.3 |
| 20260506123248 | 20 | 306 | 14.5 | 17.7 | 0.00 | 0.00 | 0.00 | 49 | 1016.6 |
| 20260506122748 | 20 | 230 | 30.6 | 32.2 | 0.00 | 0.00 | 0.00 | 49 | 1016.3 |
| 20260506122249 | 20 | 258 | 6.4 | 8.0 | 0.00 | 0.00 | 0.00 | 50 | 1016.6 |
| 20260506121747 | 20 | 276 | 14.5 | 14.5 | 0.00 | 0.00 | 0.00 | 49 | 1016.6 |
| 20260506121247 | 20 | 277 | 9.7 | 11.3 | 0.00 | 0.00 | 0.00 | 49 | 1016.6 |
| 20260506120748 | 20 | 282 | 12.9 | 12.9 | 0.00 | 0.00 | 0.00 | 50 | 1016.6 |
| 20260506120248 | 20 | 287 | 17.7 | 17.7 | 0.00 | 0.00 | 0.00 | 50 | 1016.6 |
| 20260506115747 | 20 | 306 | 17.7 | 20.9 | 0.00 | 0.00 | 0.00 | 48 | 1016.6 |
| 20260506115247 | 21 | 304 | 6.4 | 8.0 | 0.00 | 0.00 | 0.00 | 48 | 1016.6 |
| 20260506114747 | 20 | 288 | 14.5 | 16.1 | 0.00 | 0.00 | 0.00 | 48 | 1016.9 |
| 20260506114248 | 20 | 210 | 17.7 | 24.1 | 0.00 | 0.00 | 0.00 | 48 | 1016.9 |
| 20260506113749 | 20 | 282 | 20.9 | 24.1 | 0.00 | 0.00 | 0.00 | 49 | 1016.9 |
| 20260506113247 | 20 | 300 | 16.1 | 17.7 | 0.00 | 0.00 | 0.00 | 48 | 1016.9 |
| 20260506112747 | 20 | 300 | 9.7 | 11.3 | 0.00 | 0.00 | 0.00 | 47 | 1016.9 |
| 20260506112248 | 20 | 234 | 16.1 | 17.7 | 0.00 | 0.00 | 0.00 | 49 | 1017.3 |
| 20260506111747 | 20 | 300 | 8.0 | 9.7 | 0.00 | 0.00 | 0.00 | 50 | 1016.9 |
| 20260506111247 | 20 | 282 | 11.3 | 12.9 | 0.00 | 0.00 | 0.00 | 50 | 1016.9 |
| 20260506110747 | 20 | 272 | 24.1 | 27.4 | 0.00 | 0.00 | 0.00 | 49 | 1017.3 |
| 20260506110247 | 20 | 282 | 16.1 | 17.7 | 0.00 | 0.00 | 0.00 | 51 | 1017.3 |
| 20260506105747 | 20 | 233 | 17.7 | 20.9 | 0.00 | 0.00 | 0.00 | 51 | 1017.3 |
| 20260506105249 | 20 | 255 | 12.9 | 12.9 | 0.00 | 0.00 | 0.00 | 52 | 1017.3 |
| 20260506104748 | 20 | 271 | 16.1 | 17.7 | 0.00 | 0.00 | 0.00 | 51 | 1017.3 |
| 20260506104249 | 20 | 312 | 12.9 | 12.9 | 0.00 | 0.00 | 0.00 | 51 | 1017.3 |
| 20260506103748 | 20 | 207 | 8.0 | 11.3 | 0.00 | 0.00 | 0.00 | 51 | 1016.9 |
| 20260506103247 | 20 | 258 | 16.1 | 17.7 | 0.00 | 0.00 | 0.00 | 52 | 1017.3 |
| 20260506102748 | 20 | 248 | 14.5 | 17.7 | 0.00 | 0.00 | 0.00 | 51 | 1017.3 |
| 20260506102250 | 20 | 247 | 6.4 | 6.4 | 0.00 | 0.00 | 0.00 | 49 | 1017.3 |
| 20260506101749 | 20 | 42 | 1.6 | 1.6 | 0.00 | 0.00 | 0.00 | 49 | 1017.3 |
| 20260506101247 | 20 | 277 | 12.9 | 12.9 | 0.00 | 0.00 | 0.00 | 50 | 1017.3 |
| 20260506100747 | 20 | 287 | 8.0 | 9.7 | 0.00 | 0.00 | 0.00 | 49 | 1017.3 |
| 20260506100248 | 20 | 273 | 16.1 | 17.7 | 0.00 | 0.00 | 0.00 | 49 | 1016.9 |
| 20260506095748 | 20 | 271 | 14.5 | 14.5 | 0.00 | 0.00 | 0.00 | 51 | 1017.3 |
| 20260506095248 | 20 | 309 | 11.3 | 11.3 | 0.00 | 0.00 | 0.00 | 51 | 1017.3 |
| 20260506094748 | 19 | 312 | 11.3 | 11.3 | 0.00 | 0.00 | 0.00 | 50 | 1017.3 |
| 20260506094247 | 19 | 234 | 22.5 | 24.1 | 0.00 | 0.00 | 0.00 | 51 | 1017.6 |
| 20260506093747 | 20 | 204 | 8.0 | 8.0 | 0.00 | 0.00 | 0.00 | 52 | 1017.3 |
| 20260506093247 | 19 | 286 | 17.7 | 22.5 | 0.00 | 0.00 | 0.00 | 51 | 1017.3 |
| 20260506092749 | 19 | 233 | 11.3 | 12.9 | 0.00 | 0.00 | 0.00 | 52 | 1017.3 |
| 20260506092247 | 20 | 297 | 14.5 | 17.7 | 0.00 | 0.00 | 0.00 | 52 | 1017.3 |
| 20260506091748 | 19 | 292 | 14.5 | 17.7 | 0.00 | 0.00 | 0.00 | 52 | 1017.3 |
| 20260506091251 | 19 | 288 | 12.9 | 12.9 | 0.00 | 0.00 | 0.00 | 53 | 1017.3 |
| 20260506090748 | 19 | 258 | 11.3 | 11.3 | 0.00 | 0.00 | 0.00 | 51 | 1017.3 |
| 20260506090252 | 18 | 261 | 8.0 | 11.3 | 0.00 | 0.00 | 0.00 | 51 | 1017.6 |
| 20260506085748 | 18 | 228 | 11.3 | 12.9 | 0.00 | 0.00 | 0.00 | 54 | 1017.6 |
| 20260506085247 | 18 | 294 | 14.5 | 17.7 | 0.00 | 0.00 | 0.00 | 54 | 1017.6 |
| 20260506084749 | 18 | 286 | 12.9 | 12.9 | 0.00 | 0.00 | 0.00 | 52 | 1017.3 |
| 20260506084247 | 18 | 261 | 20.9 | 24.1 | 0.00 | 0.00 | 0.00 | 53 | 1017.6 |
| 20260506083748 | 18 | 243 | 14.5 | 14.5 | 0.00 | 0.00 | 0.00 | 53 | 1017.6 |
| 20260506083248 | 18 | 204 | 17.7 | 19.3 | 0.00 | 0.00 | 0.00 | 53 | 1017.6 |
| 20260506082747 | 18 | 243 | 9.7 | 11.3 | 0.00 | 0.00 | 0.00 | 53 | 1017.3 |
| 20260506082247 | 18 | 258 | 16.1 | 17.7 | 0.00 | 0.00 | 0.00 | 52 | 1017.6 |
| 20260506081747 | 19 | 270 | 14.5 | 17.7 | 0.00 | 0.00 | 0.00 | 50 | 1017.6 |
| 20260506081247 | 19 | 294 | 12.9 | 12.9 | 0.00 | 0.00 | 0.00 | 50 | 1017.6 |
| 20260506080747 | 19 | 222 | 14.5 | 14.5 | 0.00 | 0.00 | 0.00 | 49 | 1017.3 |
| 20260506080248 | 18 | 310 | 8.0 | 8.0 | 0.00 | 0.00 | 0.00 | 49 | 1017.6 |
| 20260506073248 | 18 | 260 | 9.7 | 11.3 | 0.00 | 0.00 | 0.00 | 53 | 1017.3 |
| 20260506072748 | 18 | 288 | 6.4 | 8.0 | 0.00 | 0.00 | 0.00 | 52 | 1017.3 |
| 20260506072247 | 18 | 279 | 12.9 | 14.5 | 0.00 | 0.00 | 0.00 | 53 | 1017.3 |
| 20260506071747 | 18 | 282 | 8.0 | 8.0 | 0.00 | 0.00 | 0.00 | 51 | 1017.3 |
| 20260506071254 | 18 | 330 | 12.9 | 12.9 | 0.00 | 0.00 | 0.00 | 51 | 1017.3 |
| 20260506070750 | 18 | 228 | 4.8 | 4.8 | 0.00 | 0.00 | 0.00 | 51 | 1017.3 |
| 20260506070248 | 18 | 264 | 8.0 | 9.7 | 0.00 | 0.00 | 0.00 | 52 | 1017.3 |
| 20260506062248 | 18 | 240 | 6.4 | 6.4 | 0.00 | 0.00 | 0.00 | 51 | 1016.9 |
| 20260506061748 | 17 | 227 | 29.0 | 32.2 | 0.00 | 0.00 | 0.00 | 48 | 1016.9 |
| 20260506061249 | 17 | 174 | 4.8 | 4.8 | 0.00 | 0.00 | 0.00 | 51 | 1016.9 |